Pluckemin, NJ

10:19 PM EDT on August 28, 2016 (GMT -0400)
Somerset

Weather History for KSMQ - May, 2014

Change the Weather History Date:

Sunday, May 4, 2014

  Actual Average Record
Temperature  
Mean Temperature 54 °F -  
Max Temperature 64 °F 68 °F 91 °F (2001)
Min Temperature 46 °F 43 °F 29 °F (1931)
Degree Days  
Heating Degree Days 10    
Growing Degree Days 4 (Base 50)    
Moisture  
Dew Point 40 °F    
Average Humidity 68    
Maximum Humidity 100    
Minimum Humidity 29    
Precipitation  
Precipitation 0.00 in - - ()
Sea Level Pressure  
Sea Level Pressure 29.76 in    
Wind  
Wind Speed 3 mph (West)    
Max Wind Speed 16 mph    
Max Gust Speed 28 mph    
Visibility 6 miles    
Events Fog    
Averages and records for this station are not official NWS values.
T = Trace of Precipitation, MM = Missing Value Source: NWS Daily Summary

Daily Weather History Graph

Daily Weather History Graph

Search for Another Location

Airport or City:

Trip Planner

Search our weather history database for the weather conditions in past years. The results will help you decide how hot, cold, wet, or windy it might be!

Date:

Astronomy

May. 04, 2014 Rise Set
Actual Time 5:53 AM EDT 7:57 PM EDT
Civil Twilight 5:23 AM EDT 8:27 PM EDT
Nautical Twilight 4:47 AM EDT 9:04 PM EDT
Astronomical Twilight 4:07 AM EDT 9:44 PM EDT
Moon 10:15 AM EDT (5/4) 12:01 AM EDT (5/4)
Length of Visible Light 15h 03m
Length of Day
14h 03m
Waxing Crescent, 27% of the Moon is Illuminated
May 4
Waxing Crescent
May 6
First Quarter
May 14
Full
May 21
Last Quarter
May 28
New

Hourly Weather History & Observations

Time (EDT) Temp. Dew Point Humidity Pressure Visibility Wind Dir Wind Speed Gust Speed Precip Events Conditions
12:06 AM 51.1 °F 48.9 °F 92% 29.77 in 2.5 mi Calm Calm - N/A   Clear
12:16 AM 48.9 °F 48.0 °F 97% 29.78 in 0.8 mi Calm Calm - N/A   Clear
12:30 AM 48.9 °F 46.9 °F 93% 29.78 in 0.2 mi Calm Calm - N/A Fog Fog
12:53 AM 48.0 °F 46.0 °F 93% 29.78 in 0.2 mi Calm Calm - N/A Fog Fog
1:19 AM 48.0 °F 46.0 °F 93% 29.78 in 0.8 mi Calm Calm - N/A   Overcast
1:30 AM 48.9 °F 46.9 °F 93% 29.77 in 2.5 mi Calm Calm - N/A   Overcast
1:37 AM 48.9 °F 46.9 °F 93% 29.77 in 6.0 mi Calm Calm - N/A   Overcast
1:53 AM 48.0 °F 46.9 °F 96% 29.77 in 4.0 mi Calm Calm - N/A   Overcast
2:26 AM 48.0 °F 46.9 °F 96% 29.77 in 1.5 mi Calm Calm - N/A   Scattered Clouds
2:36 AM 48.0 °F 46.0 °F 93% 29.77 in 0.8 mi Calm Calm - N/A   Clear
2:50 AM 46.4 °F 46.4 °F 100% 29.77 in 0.2 mi Calm Calm - N/A Fog Fog
2:53 AM 46.0 °F 45.0 °F 96% 29.78 in 0.2 mi Calm Calm - N/A Fog Fog
3:05 AM 46.9 °F 46.0 °F 97% 29.77 in 0.2 mi Calm Calm - N/A Fog Fog
3:10 AM 48.0 °F 46.0 °F 93% 29.77 in 1.0 mi South 3.5 mph - N/A   Mostly Cloudy
3:14 AM 48.0 °F 46.0 °F 93% 29.77 in 4.0 mi South 4.6 mph - N/A   Mostly Cloudy
3:53 AM 48.9 °F 46.0 °F 90% 29.77 in 10.0 mi Variable 5.8 mph - N/A   Clear
4:53 AM 48.0 °F 44.1 °F 86% 29.78 in 10.0 mi Calm Calm - N/A   Clear
5:53 AM 46.9 °F 44.1 °F 90% 29.79 in 10.0 mi Calm Calm - N/A   Overcast
6:53 AM 48.0 °F 44.1 °F 86% 29.79 in 10.0 mi SSE 3.5 mph - N/A   Mostly Cloudy
7:53 AM 51.1 °F 46.0 °F 83% 29.79 in 10.0 mi Calm Calm - N/A   Overcast
8:53 AM 55.0 °F 42.1 °F 62% 29.78 in 10.0 mi North - - N/A   Overcast
9:53 AM 57.0 °F 35.1 °F 44% 29.75 in 10.0 mi West 8.1 mph 23.0 mph N/A   Overcast
10:53 AM 57.0 °F 35.1 °F 44% 29.74 in 10.0 mi Variable 5.8 mph 16.1 mph N/A   Overcast
11:53 AM 57.9 °F 35.1 °F 42% 29.73 in 10.0 mi Variable 4.6 mph - N/A   Overcast
12:53 PM 60.1 °F 35.1 °F 39% 29.71 in 10.0 mi North - - N/A   Overcast
1:53 PM 59.0 °F 35.1 °F 41% 29.70 in 10.0 mi West 8.1 mph 19.6 mph N/A   Overcast
2:53 PM 63.0 °F 35.1 °F 35% 29.69 in 10.0 mi West 11.5 mph 23.0 mph N/A   Partly Cloudy
3:53 PM 62.1 °F 35.1 °F 37% 29.70 in 10.0 mi West 13.8 mph 26.5 mph N/A   Partly Cloudy
4:53 PM 63.0 °F 35.1 °F 35% 29.68 in 10.0 mi West 16.1 mph 27.6 mph N/A   Clear
5:53 PM 63.0 °F 34.0 °F 34% 29.69 in 10.0 mi WNW 10.4 mph 20.7 mph N/A   Scattered Clouds
6:53 PM 59.0 °F 34.0 °F 39% 29.70 in 10.0 mi WNW 6.9 mph - N/A   Mostly Cloudy
7:53 PM 59.0 °F 28.0 °F 31% 29.73 in 10.0 mi NW 6.9 mph - N/A   Partly Cloudy
8:53 PM 57.0 °F 25.0 °F 29% 29.76 in 10.0 mi NW 9.2 mph - N/A   Clear
9:53 PM 57.0 °F 25.0 °F 29% 29.80 in 10.0 mi NW 12.7 mph 20.7 mph N/A   Clear
10:53 PM 55.0 °F 27.0 °F 34% 29.80 in 10.0 mi NW 9.2 mph - N/A   Clear
11:53 PM 54.0 °F 28.0 °F 37% 29.82 in 10.0 mi NW 6.9 mph - N/A   Clear